TimeCDT,TemperatureF,Dew PointF,Humidity,Sea Level PressureIn,VisibilityMPH,Wind Direction,Wind SpeedMPH,Gust SpeedMPH,PrecipitationIn,Events,Conditions,WindDirDegrees,DateUTC
12:53 AM,45.0,33.1,63,30.09,10.0,West,3.5,-,N/A,,Clear,280,2012-10-05 05:53:00
1:53 AM,42.1,33.1,70,30.11,10.0,West,4.6,-,N/A,,Clear,280,2012-10-05 06:53:00
3:53 AM,41.0,32.0,70,30.14,10.0,West,8.1,-,N/A,,Clear,280,2012-10-05 08:53:00
4:53 AM,37.9,30.9,76,30.14,10.0,West,8.1,-,N/A,,Clear,260,2012-10-05 09:53:00
5:53 AM,37.9,30.0,73,30.14,10.0,West,8.1,-,N/A,,Clear,270,2012-10-05 10:53:00
6:53 AM,36.0,30.0,79,30.14,10.0,WSW,8.1,-,N/A,,Clear,240,2012-10-05 11:53:00
7:53 AM,39.0,32.0,76,30.14,10.0,West,8.1,-,N/A,,Clear,260,2012-10-05 12:53:00
8:53 AM,44.1,30.9,60,30.13,10.0,West,13.8,-,N/A,,Clear,280,2012-10-05 13:53:00
9:53 AM,46.9,30.9,54,30.12,10.0,West,17.3,21.9,N/A,,Clear,280,2012-10-05 14:53:00
10:53 AM,50.0,30.9,48,30.11,10.0,WNW,16.1,20.7,N/A,,Clear,300,2012-10-05 15:53:00
12:53 PM,51.1,30.0,44,30.09,10.0,West,15.0,-,N/A,,Clear,270,2012-10-05 17:53:00
1:53 PM,51.1,28.9,43,30.06,10.0,West,12.7,-,N/A,,Clear,260,2012-10-05 18:53:00
2:53 PM,51.1,26.1,38,30.06,10.0,West,13.8,20.7,N/A,,Overcast,270,2012-10-05 19:53:00
3:53 PM,50.0,26.1,39,30.05,10.0,West,16.1,23.0,N/A,,Overcast,270,2012-10-05 20:53:00
4:53 PM,50.0,24.1,36,30.04,10.0,West,16.1,23.0,N/A,,Partly Cloudy,280,2012-10-05 21:53:00
5:53 PM,48.0,23.0,37,30.06,10.0,West,17.3,25.3,N/A,,Mostly Cloudy,280,2012-10-05 22:53:00
6:53 PM,46.0,23.0,40,30.06,10.0,West,13.8,20.7,N/A,,Mostly Cloudy,270,2012-10-05 23:53:00
7:53 PM,45.0,23.0,42,30.06,10.0,West,12.7,-,N/A,,Partly Cloudy,270,2012-10-06 00:53:00
8:53 PM,44.1,24.1,45,30.06,10.0,West,12.7,-,N/A,,Clear,270,2012-10-06 01:53:00
9:53 PM,41.0,23.0,49,30.06,10.0,West,10.4,-,N/A,,Clear,260,2012-10-06 02:53:00
10:53 PM,39.0,24.1,55,30.06,10.0,WSW,8.1,-,N/A,,Clear,250,2012-10-06 03:53:00
11:53 PM,36.0,24.1,62,30.06,10.0,WSW,8.1,-,N/A,,Clear,250,2012-10-06 04:53:00